Weather in Ukhta

Russia / Khabarovsk Krai     52°22′36″N   140°23′51″E
temp.,
°C
wind,
m/s
gust,
m/s
humid.,
%
clouds,
%
prec.,
mm/h
press.,
hPa
HPBL,
m
27 february, sat
sat2701:00−22nw229880 0.0 102820
04:00−23nw119452 0.0 102820
07:00−23sw119314 0.0 102820
10:00−18ssw22877 0.0 1028132
13:00−13ssw23830 0.0 1027293
16:00−14sw239218 0.0 1024288
19:00−18s1299100 0.0 102421
22:00−17sse2298100 0.1 102233
28 february, sun
sun2801:00−15se1292100 0.0 101848
04:00−14ese1297100 0.7 101358
07:00−13ssw1197100 1.2 101138
10:00−12wsw2393100 1.6 1010327
13:00−11wnw3684100 0.1 1010813
16:00−12wnw3885100 0.3 1011832
19:00−18wnw289792 0.1 1014367
22:00−22nw399782 0.1 1016427
1 march, mon
mon101:00−23wnw249995 0.1 1016194
04:00−22wnw259998 0.2 1018214
07:00−22wnw21199100 0.3 1020533
10:00−19wnw51089100 0.4 1021850
13:00−18wnw7128047 0.0 10221119
16:00−18nw478269 0.1 10221004
19:00−22nw129672 0.1 102323
22:00−24nw119776 0.1 102420
2 march, tue
tue201:00−25nw1110095 0.0 102420
04:00−27w119891 0.0 102519
07:00−27s1297100 0.0 102719
10:00−24sw2595100 0.0 1027429
13:00−21wsw577470 0.0 10271165
16:00−20w597385 0.1 10261489
19:00−24wsw229299 0.0 102743
22:00−27ssw128671 0.0 102819
3 march, wed
wed301:00−28ssw129050 0.0 102719
04:00−30s119025 0.0 102619
07:00−31ssw12910 0.0 102619
10:00−24ssw22850 0.0 1024168
13:00−19sw24770 0.0 1022423
16:00−19ssw23840 0.0 1019340
19:00−23s129712 0.0 101720
22:00−22s229853 0.0 101622